[[{"header":{"parameterUnit":"m.s-1","parameterCategory":1,"la1":30.2991,"la2":30.254,"lo1":-89.0895,"lo2":-89.0444,"dy":0.0017,"dx":0.0017,"nx":28,"ny":28,"refTime":"2024-10-16T21:00:00:Z","depth":0,"parameterNumber":2,"parameterNumberName":"U-component_of_WINDS"},"data":[0,0,0,0,0,0,0,0,0,0,0,0,0,0,0,0,0,0,0,0,0,0,0,0,0,0,0,0,0,0,0,0,0,0,0,0,0,0,0,0,0,0,0,0,0,0,0,0,0,0,0,0,0,0,0,0,0,0,-4.5152,-4.5152,0,-4.5166,-4.5166,-4.5166,-4.4975,-4.497,-4.4965,-4.496,-4.4977,-4.4982,-4.4987,0,0,0,0,0,0,0,0,0,0,0,0,0,-4.4959,-4.4964,-4.5152,-4.5152,-4.5152,-4.5166,-4.5166,-4.5166,-4.4976,-4.497,-4.4963,-4.4957,-4.4975,-4.4981,-4.4988,0,0,0,0,0,0,0,0,0,0,0,0,0,-4.5015,-4.4965,-4.5152,-4.5059,-4.505,-4.5166,-4.5166,-4.5166,-4.4977,-4.4969,-4.4962,-4.4954,-4.4973,-4.4981,-4.4988,-4.5194,0,0,-4.5013,-4.5016,0,0,0,0,0,0,0,0,-4.5013,-4.5023,-4.5072,-4.5065,-4.5056,-4.5061,-4.5104,-4.5176,-4.4979,-4.5005,-4.496,-4.495,-4.5011,-4.5015,-4.5035,-4.5195,-4.5196,-4.5013,-4.5018,-4.5022,-4.5024,0,0,0,0,0,0,0,-4.5009,-4.5021,-4.5157,-4.5073,-4.5063,-4.5016,-4.5015,-4.5117,-4.5052,-4.5002,-4.4988,-4.4993,-4.5005,-4.5028,-4.5034,-4.5196,-4.5013,-4.502,-4.5025,-4.5028,-4.5525,-4.5533,0,0,0,0,0,0,-4.5017,-4.5019,-4.5157,-4.5158,-4.5015,-4.5026,-4.5025,-4.5067,-4.505,-4.504,-4.4999,-4.4984,-4.5018,-4.5025,-4.5034,-4.5275,-4.5022,-4.5029,-4.5034,-4.5517,-4.5527,-4.5536,0,0,0,0,0,0,-4.5014,-4.5032,-4.5156,-4.5085,-4.5097,-4.5038,-4.5086,-4.5072,-4.5094,-4.5048,-4.5035,-4.5035,-4.5012,-4.5023,-4.5156,-4.5273,-4.5033,-4.504,-4.5507,-4.552,-4.5531,-4.5758,0,0,0,0,0,0,-4.5009,-4.5031,-4.5109,-4.5088,-4.5101,-4.5278,-4.5093,-4.5078,-4.5108,-4.5088,-4.5078,-4.5069,-4.5007,-4.5145,-4.5164,-4.5279,-4.5046,-4.5496,-4.5512,-4.5527,-4.574,-4.5777,-4.5808,0,0,0,0,0,-4.5003,-4.5173,-4.5114,-4.5132,-4.5197,-4.5285,-4.5293,-4.5218,-4.5119,-4.5196,-4.5166,-4.5069,-4.5256,-4.516,-4.518,-4.53,-4.5488,-4.5508,-4.5526,-4.5724,-4.5769,-4.5807,0,0,0,0,0,0,-4.5211,-4.5169,-4.5103,-4.5271,-4.5283,-4.5253,-4.5349,-4.5268,-4.531,-4.5289,-4.5194,-4.5194,-4.5342,-4.5333,-4.5227,-4.5497,-4.5355,-4.5379,-4.5499,-4.5541,-4.5575,-4.5575,-4.5053,0,0,0,0,0,-4.5276,-4.5351,-4.5309,-4.5462,-4.5471,-4.541,-4.5445,-4.5386,-4.5395,-4.54,-4.5379,-4.5392,-4.5453,-4.5496,-4.555,-4.5736,-4.5732,-4.5828,-4.5862,-4.589,-4.5913,-4.6011,-4.6054,-4.5598,-4.5598,-4.5597,0,0,-4.5413,-4.5398,-4.5452,-4.5503,-4.5506,-4.5586,-4.5415,-4.5507,-4.5565,-4.5413,-4.5538,-4.5523,-4.5531,-4.5692,-4.5762,-4.5689,-4.6037,-4.5915,-4.5938,-4.5945,-4.6035,-4.6079,-4.6117,-4.5611,-4.5608,-4.5606,0,0,-4.5702,-4.5698,-4.5825,-4.583,-4.5835,-4.5793,-4.5823,-4.5805,-4.5789,-4.5912,-4.58,-4.5867,-4.5975,-4.5985,-4.6005,-4.6296,-4.6209,-4.6316,-4.6496,-4.6593,-4.6629,-4.666,-4.6766,-4.6805,-4.6338,-4.6338,-4.6339,0,-4.5871,-4.5986,-4.59,-4.5999,-4.6026,-4.589,-4.6017,-4.6027,-4.605,-4.6072,-4.5989,-4.6121,-4.6117,-4.6278,-4.6349,-4.6369,-4.6401,-4.6318,-4.6631,-4.6661,-4.6689,-4.6789,-4.6828,-4.6352,-4.635,-4.6349,-4.6347,0,-4.6194,-4.6276,-4.6377,-4.6403,-4.644,-4.6553,-4.6484,-4.6532,-4.6469,-4.6435,-4.6562,-4.6551,-4.6601,-4.6634,-4.6573,-4.6787,-4.6742,-4.6647,-4.6502,-4.6748,-4.6839,-4.6877,-4.637,-4.6366,-4.6362,-4.6359,0,0,-4.6619,-4.6593,-4.6632,-4.6641,-4.6636,-4.6698,-4.6804,-4.6851,-4.6895,-4.6914,-4.7002,-4.7095,-4.7007,-4.7029,-4.6968,-4.7053,-4.7286,-4.6947,-4.6945,-4.7012,-4.7521,-4.7595,-4.7641,-4.7226,-4.7233,-4.7238,-4.7521,0,-4.6901,-4.7082,-4.7006,-4.7194,-4.7269,-4.714,-4.7232,-4.7239,-4.721,-4.7269,-4.7235,-4.7304,-4.7181,-4.7194,-4.7271,-4.7241,-4.7387,-4.7219,-4.7308,-4.7312,-4.7313,-4.7688,-4.7767,-4.8034,-4.7556,-4.7562,-4.7567,0,-4.7257,-4.729,-4.7486,-4.7466,-4.7495,-4.758,-4.7616,-4.7674,-4.7679,-4.7651,-4.7676,-4.7595,-4.7698,-4.7552,-4.7693,-4.758,-4.7611,-4.7602,-4.761,-4.7618,-4.7457,-4.7709,-4.8118,-4.8159,-4.7622,-4.7618,-4.7614,0,-4.7549,-4.7643,-4.7772,-4.7783,-4.7764,-4.7826,-4.7821,-4.7818,-4.7851,-4.7883,-4.7903,-4.7948,-4.7973,-4.8008,-4.7942,-4.7841,-4.8093,-4.7941,-4.8074,-4.8077,-4.8136,-4.8134,-4.8559,-4.8153,-4.8152,-4.8151,-4.815,0,-4.7875,-4.8,-4.7903,-4.7983,-4.8119,-4.803,-4.8167,-4.8147,-4.8145,-4.8219,-4.8109,-4.818,-4.8087,-4.815,-4.8098,-4.8223,-4.8235,-4.8216,-4.8202,-4.8228,-4.8231,-4.8249,-4.823,-4.8162,-4.8159,-4.8157,-4.8155,0,-4.8226,-4.8166,-4.8298,-4.8267,-4.8263,-4.8365,-4.8338,-4.8411,-4.8372,-4.8467,-4.8484,-4.8425,-4.8493,-4.8429,-4.8493,-4.8458,-4.8627,-4.8584,-4.8626,-4.8615,-4.8753,-4.8742,-4.9207,-4.9264,-4.8819,-4.8823,-4.8827,0,-4.8439,-4.8532,-4.8511,-4.8552,-4.8554,-4.8621,-4.8654,-4.8569,-4.8608,-4.8619,-4.8691,-4.8749,-4.8791,-4.8906,-4.8869,-4.8917,-4.8876,-4.9036,-4.8883,-4.8907,-4.8881,-4.8878,-4.8887,-4.9068,-4.9073,-4.9078,-4.9081,0,-4.8825,-4.8789,-4.8841,-4.8882,-4.8924,-4.8952,-4.8972,-4.9012,-4.8924,-4.8973,-4.9041,-4.9074,-4.9138,-4.9198,-4.9235,-4.9229,-4.9143,-4.9129,-4.9163,-4.9192,-4.9213,-4.9206,-4.8713,-4.912,-4.9116,-4.9113,-4.9111,-4.9109,-4.9114,-4.9191,-4.9188,-4.9249,-4.9254,-4.9275,-4.9341,-4.931,-4.9365,-4.9411,-4.9357,-4.944,-4.9441,-4.9481,-4.9486,-4.955,-4.9483,-4.9532,-4.9544,-4.9559,-4.958,-4.9201,-4.9556,-4.9555,-4.9554,-4.9553,-4.9552,0,-4.9496,-4.9487,-4.9543,-4.9574,-4.9621,-4.9532,-4.9549,-4.9595,-4.9669,-4.9677,-4.972,-4.9798,-4.9855,-4.9821,-4.987,-4.9928,-4.9889,-4.9944,-4.994,-4.994,-4.9636,-4.9603,-4.9974,-4.9974,-4.9974,-4.9974,-4.9974,-4.9974,-4.97,-4.9825,-4.979,-4.9916,-4.9906,-4.9986,-5.0003,-5.0022,-5.0027,-5.0119,-5.0165,-5.0142,-5.0133,-5.018,-5.0228,-5.0217,-5.0241,-5.0311,-5.0286,-5.0003,-4.9962,-4.9922,-4.989,-5.0316,-5.0317,-5.0584,-5.0587,-5.0589]},{"header":{"parameterUnit":"m.s-1","parameterCategory":1,"la1":30.2991,"la2":30.254,"lo1":-89.0895,"lo2":-89.0444,"dy":0.0017,"dx":0.0017,"nx":28,"ny":28,"refTime":"2024-10-16T21:00:00:Z","depth":0,"parameterNumber":3,"parameterNumberName":"V-component_of_WINDS"},"data":[0,0,0,0,0,0,0,0,0,0,0,0,0,0,0,0,0,0,0,0,0,0,0,0,0,0,0,0,0,0,0,0,0,0,0,0,0,0,0,0,0,0,0,0,0,0,0,0,0,0,0,0,0,0,0,0,0,0,-6.4107,-6.4108,0,-6.4153,-6.4154,-6.4154,-6.402,-6.4016,-6.4012,-6.4008,-6.4052,-6.4057,-6.4062,0,0,0,0,0,0,0,0,0,0,0,0,0,-6.3897,-6.3902,-6.4107,-6.4108,-6.4108,-6.4153,-6.4154,-6.4155,-6.4021,-6.4016,-6.4011,-6.4006,-6.405,-6.4056,-6.4062,0,0,0,0,0,0,0,0,0,0,0,0,0,-6.397,-6.3903,-6.4107,-6.4047,-6.4042,-6.4153,-6.4154,-6.4155,-6.4022,-6.4015,-6.4009,-6.4004,-6.4048,-6.4056,-6.4063,-6.4233,0,0,-6.4086,-6.4089,0,0,0,0,0,0,0,0,-6.3966,-6.3978,-6.4055,-6.4051,-6.4046,-6.4075,-6.4096,-6.4181,-6.4023,-6.4029,-6.4008,-6.4,-6.4064,-6.407,-6.4092,-6.4236,-6.4237,-6.4087,-6.4091,-6.4095,-6.4097,0,0,0,0,0,0,0,-6.3961,-6.3975,-6.4125,-6.4056,-6.4051,-6.4016,-6.4019,-6.4111,-6.4081,-6.4028,-6.4019,-6.4026,-6.406,-6.4085,-6.4092,-6.4238,-6.4087,-6.4093,-6.4098,-6.4101,-6.4521,-6.4527,0,0,0,0,0,0,-6.3965,-6.3972,-6.4124,-6.4127,-6.399,-6.4025,-6.4029,-6.4072,-6.4079,-6.4075,-6.4031,-6.402,-6.4076,-6.4084,-6.4093,-6.4292,-6.4094,-6.4102,-6.4106,-6.4514,-6.4522,-6.4529,0,0,0,0,0,0,-6.3961,-6.398,-6.4122,-6.4047,-6.4062,-6.4035,-6.4084,-6.4076,-6.41,-6.4082,-6.4075,-6.4063,-6.4071,-6.4083,-6.4199,-6.4292,-6.4105,-6.4112,-6.4506,-6.4517,-6.4526,-6.4692,0,0,0,0,0,0,-6.3955,-6.3979,-6.4045,-6.4049,-6.4067,-6.4229,-6.409,-6.4081,-6.4114,-6.4099,-6.411,-6.4105,-6.4067,-6.4189,-6.4207,-6.4299,-6.4118,-6.4498,-6.4511,-6.4523,-6.4678,-6.4706,-6.473,0,0,0,0,0,-6.3948,-6.4089,-6.4049,-6.4068,-6.4149,-6.4235,-6.4244,-6.4199,-6.4122,-6.4187,-6.4175,-6.4105,-6.4279,-6.4202,-6.4221,-6.4317,-6.4492,-6.4507,-6.4522,-6.4666,-6.4701,-6.473,0,0,0,0,0,0,-6.4096,-6.4089,-6.4044,-6.4191,-6.4215,-6.4212,-6.4293,-6.4237,-6.4282,-6.4266,-6.4206,-6.4209,-6.4336,-6.4338,-6.4252,-6.4481,-6.4372,-6.4392,-6.4475,-6.4508,-6.4534,-6.453,-6.4124,0,0,0,0,0,-6.4146,-6.4218,-6.4207,-6.4338,-6.4352,-6.4321,-6.4356,-6.4319,-6.434,-6.4349,-6.4345,-6.4368,-6.4427,-6.4467,-6.4521,-6.4677,-6.4677,-6.4752,-6.4778,-6.48,-6.4818,-6.4898,-6.4931,-6.4579,-6.4578,-6.4578,0,0,-6.4249,-6.4254,-6.4303,-6.4367,-6.4381,-6.4455,-6.433,-6.4414,-6.4468,-6.4361,-6.4471,-6.447,-6.449,-6.4627,-6.4687,-6.4632,-6.4915,-6.4819,-6.4837,-6.4842,-6.4917,-6.4951,-6.498,-6.4589,-6.4587,-6.4585,0,0,-6.4475,-6.4487,-6.4596,-6.4613,-6.4635,-6.4613,-6.464,-6.4645,-6.464,-6.475,-6.4671,-6.4733,-6.4837,-6.4855,-6.4877,-6.5108,-6.5045,-6.5127,-6.5264,-6.5344,-6.5372,-6.5396,-6.5477,-6.5507,-6.5145,-6.5145,-6.5146,0,-6.46,-6.471,-6.4659,-6.4749,-6.4778,-6.4686,-6.4795,-6.4813,-6.4852,-6.4874,-6.4812,-6.4939,-6.4947,-6.5086,-6.5142,-6.5164,-6.5191,-6.5126,-6.5372,-6.5396,-6.5418,-6.5494,-6.5525,-6.5155,-6.5154,-6.5153,-6.5152,0,-6.4862,-6.4939,-6.5025,-6.5065,-6.5104,-6.5203,-6.5166,-6.5211,-6.517,-6.5154,-6.5265,-6.5271,-6.5324,-6.5354,-6.5314,-6.5487,-6.5452,-6.5382,-6.5272,-6.5462,-6.5533,-6.5562,-6.5169,-6.5166,-6.5163,-6.516,0,0,-6.5183,-6.5194,-6.5226,-6.5242,-6.526,-6.5317,-6.5411,-6.5463,-6.5503,-6.5532,-6.5608,-6.5697,-6.5632,-6.5658,-6.5619,-6.569,-6.587,-6.5611,-6.561,-6.5658,-6.6059,-6.6111,-6.6146,-6.5829,-6.5834,-6.5838,-6.6057,0,-6.5405,-6.5567,-6.5523,-6.5684,-6.5753,-6.5666,-6.5747,-6.5766,-6.5753,-6.5809,-6.5793,-6.5858,-6.5768,-6.5783,-6.5848,-6.5835,-6.595,-6.5818,-6.5897,-6.5901,-6.5894,-6.6183,-6.6239,-6.6445,-6.6084,-6.6089,-6.6093,0,-6.5686,-6.5727,-6.5895,-6.5899,-6.5927,-6.6001,-6.6044,-6.6099,-6.6117,-6.6103,-6.6132,-6.6078,-6.6168,-6.6058,-6.618,-6.6091,-6.612,-6.6119,-6.6125,-6.6131,-6.6008,-6.6195,-6.651,-6.6541,-6.6136,-6.6132,-6.6129,0,-6.5902,-6.5999,-6.6111,-6.6128,-6.6137,-6.619,-6.6196,-6.6208,-6.6242,-6.6279,-6.63,-6.6347,-6.6373,-6.641,-6.637,-6.6293,-6.6498,-6.6384,-6.6487,-6.6488,-6.6534,-6.6532,-6.6857,-6.6555,-6.6554,-6.6554,-6.6553,0,-6.6154,-6.626,-6.6208,-6.6278,-6.6393,-6.634,-6.6456,-6.6451,-6.6462,-6.6528,-6.6455,-6.6518,-6.6461,-6.6519,-6.6488,-6.6593,-6.6605,-6.6595,-6.6585,-6.6601,-6.6603,-6.6619,-6.6604,-6.6562,-6.656,-6.6558,-6.6557,0,-6.6415,-6.6385,-6.6502,-6.65,-6.6501,-6.6587,-6.6584,-6.6647,-6.6628,-6.6712,-6.6728,-6.6699,-6.6763,-6.6726,-6.6791,-6.677,-6.6907,-6.6878,-6.6901,-6.6893,-6.6998,-6.6988,-6.7345,-6.7388,-6.7059,-6.7062,-6.7065,0,-6.6578,-6.6657,-6.6663,-6.6703,-6.6713,-6.6777,-6.6811,-6.6761,-6.6799,-6.6825,-6.6885,-6.6942,-6.6985,-6.709,-6.7074,-6.7123,-6.7094,-6.7215,-6.7101,-6.7114,-6.7094,-6.709,-6.7097,-6.7239,-6.7242,-6.7246,-6.7248,0,-6.6869,-6.685,-6.6902,-6.6949,-6.6991,-6.7026,-6.7054,-6.709,-6.704,-6.7086,-6.715,-6.7184,-6.725,-6.7307,-6.7348,-6.7352,-6.7292,-6.7284,-6.731,-6.7327,-6.7337,-6.7332,-6.6963,-6.7276,-6.7273,-6.7271,-6.727,-6.7269,-6.7085,-6.7151,-6.7165,-6.7225,-6.7241,-6.7269,-6.7327,-6.7316,-6.7369,-6.742,-6.7387,-6.7462,-6.7476,-6.7525,-6.7537,-6.7594,-6.7545,-6.7583,-6.7593,-6.7603,-6.7617,-6.7329,-6.7601,-6.7601,-6.76,-6.7599,-6.7598,0,-6.7371,-6.7376,-6.7432,-6.7473,-6.752,-6.746,-6.7487,-6.753,-6.7598,-6.7617,-6.766,-6.7733,-6.7788,-6.7776,-6.7825,-6.7873,-6.7846,-6.7887,-6.7883,-6.7885,-6.7658,-6.763,-6.7908,-6.7908,-6.7908,-6.7908,-6.7908,-6.7908,-6.7526,-6.7634,-6.7616,-6.773,-6.7733,-6.7808,-6.7828,-6.7853,-6.7867,-6.7952,-6.7998,-6.7989,-6.7995,-6.8044,-6.8091,-6.8085,-6.8106,-6.8158,-6.8142,-6.7931,-6.7901,-6.7871,-6.7845,-6.8163,-6.8163,-6.8363,-6.8365,-6.8367]}]]